23/03/2024 16:15:00,0.328
23/03/2024 16:30:00,0.328
23/03/2024 16:45:00,0.331
23/03/2024 17:00:00,0.332
23/03/2024 17:15:00,0.333
23/03/2024 17:30:00,0.335
23/03/2024 17:45:00,0.34
23/03/2024 18:00:00,0.34
23/03/2024 18:15:00,0.34
23/03/2024 18:30:00,0.341
23/03/2024 18:45:00,0.345
23/03/2024 19:00:00,0.346
23/03/2024 19:15:00,0.35
23/03/2024 19:30:00,0.351
23/03/2024 19:45:00,0.353
23/03/2024 20:00:00,0.358
23/03/2024 20:15:00,0.358
23/03/2024 20:30:00,0.361
23/03/2024 20:45:00,0.365
23/03/2024 21:00:00,0.365
23/03/2024 21:15:00,0.368
23/03/2024 21:30:00,0.372
23/03/2024 21:45:00,0.373
23/03/2024 22:00:00,0.377
23/03/2024 22:15:00,0.381
23/03/2024 22:30:00,0.382
23/03/2024 22:45:00,0.386
23/03/2024 23:00:00,0.388
23/03/2024 23:15:00,0.391
23/03/2024 23:30:00,0.395
23/03/2024 23:45:00,0.397
24/03/2024 00:00:00,0.398
24/03/2024 00:15:00,0.4
24/03/2024 00:30:00,0.402
24/03/2024 00:45:00,0.405
24/03/2024 01:00:00,0.409
24/03/2024 01:15:00,0.411
24/03/2024 01:30:00,0.411
24/03/2024 01:45:00,0.414
24/03/2024 02:00:00,0.414
24/03/2024 02:15:00,0.416
24/03/2024 02:30:00,0.42
24/03/2024 02:45:00,0.416
24/03/2024 03:00:00,0.419
24/03/2024 03:15:00,0.421
24/03/2024 03:30:00,0.423
24/03/2024 03:45:00,0.425
24/03/2024 04:00:00,0.429
24/03/2024 04:15:00,0.43
24/03/2024 04:30:00,0.428
24/03/2024 04:45:00,0.43
24/03/2024 05:00:00,0.431
24/03/2024 05:15:00,0.434
24/03/2024 05:30:00,0.435
24/03/2024 05:45:00,0.441
24/03/2024 06:00:00,0.442
24/03/2024 06:15:00,0.442
24/03/2024 06:30:00,0.446
24/03/2024 06:45:00,0.45
24/03/2024 07:00:00,0.457
24/03/2024 07:15:00,0.461
24/03/2024 07:30:00,0.463
24/03/2024 07:45:00,0.469
24/03/2024 08:00:00,0.476
24/03/2024 08:15:00,0.478
24/03/2024 08:30:00,0.482
24/03/2024 08:45:00,0.49
24/03/2024 09:00:00,0.495
24/03/2024 09:15:00,0.496
24/03/2024 09:30:00,0.501
24/03/2024 09:45:00,0.506
24/03/2024 10:00:00,0.51
24/03/2024 10:15:00,0.511
24/03/2024 10:30:00,0.511
24/03/2024 10:45:00,0.514
24/03/2024 11:00:00,0.511
24/03/2024 11:15:00,0.514
24/03/2024 11:30:00,0.517
24/03/2024 11:45:00,0.52
24/03/2024 12:00:00,0.516
24/03/2024 12:15:00,0.519
24/03/2024 12:30:00,0.522
24/03/2024 12:45:00,0.522
24/03/2024 13:00:00,0.523
24/03/2024 13:15:00,0.525
24/03/2024 13:30:00,0.524
24/03/2024 13:45:00,0.526
24/03/2024 14:00:00,0.527
24/03/2024 14:15:00,0.532
24/03/2024 14:30:00,0.542
24/03/2024 14:45:00,0.549
24/03/2024 15:00:00,0.56
24/03/2024 15:15:00,0.568
24/03/2024 15:30:00,0.577
24/03/2024 15:45:00,0.583
24/03/2024 16:00:00,0.587
24/03/2024 16:15:00,0.59
24/03/2024 16:30:00,0.592
24/03/2024 16:45:00,0.594
24/03/2024 17:00:00,0.592
24/03/2024 17:15:00,0.592
24/03/2024 17:30:00,0.59
24/03/2024 17:45:00,0.59
24/03/2024 18:00:00,0.589
24/03/2024 18:15:00,0.586
24/03/2024 18:30:00,0.583
24/03/2024 18:45:00,0.583
24/03/2024 19:00:00,0.58
24/03/2024 19:15:00,0.578
24/03/2024 19:30:00,0.578
24/03/2024 19:45:00,0.576
24/03/2024 20:00:00,0.571
24/03/2024 20:15:00,0.571
24/03/2024 20:30:00,0.57
24/03/2024 20:45:00,0.568
24/03/2024 21:00:00,0.566
24/03/2024 21:15:00,0.565
24/03/2024 21:30:00,0.564
24/03/2024 21:45:00,0.562
24/03/2024 22:00:00,0.559
24/03/2024 22:15:00,0.556
24/03/2024 22:30:00,0.555
24/03/2024 22:45:00,0.555
24/03/2024 23:00:00,0.548
24/03/2024 23:15:00,0.55
24/03/2024 23:30:00,0.55
24/03/2024 23:45:00,0.546
25/03/2024 00:00:00,0.546
25/03/2024 00:15:00,0.543
25/03/2024 00:30:00,0.539
25/03/2024 00:45:00,0.54
25/03/2024 01:00:00,0.537
25/03/2024 01:15:00,0.534
25/03/2024 01:30:00,0.537
25/03/2024 01:45:00,0.529
25/03/2024 02:00:00,0.529
25/03/2024 02:15:00,0.527
25/03/2024 02:30:00,0.529
25/03/2024 02:45:00,0.525
25/03/2024 03:00:00,0.523
25/03/2024 03:15:00,0.52
25/03/2024 03:30:00,0.518
25/03/2024 03:45:00,0.518
25/03/2024 04:00:00,0.518
25/03/2024 04:15:00,0.513
25/03/2024 04:30:00,0.513
25/03/2024 04:45:00,0.511
25/03/2024 05:00:00,0.51
25/03/2024 05:15:00,0.507
25/03/2024 05:30:00,0.506
25/03/2024 05:45:00,0.504
25/03/2024 06:00:00,0.504
25/03/2024 06:15:00,0.501
25/03/2024 06:30:00,0.499
25/03/2024 06:45:00,0.497
25/03/2024 07:00:00,0.497
25/03/2024 07:15:00,0.495
25/03/2024 07:30:00,0.492
25/03/2024 07:45:00,0.493
25/03/2024 08:00:00,0.49
25/03/2024 08:15:00,0.49
25/03/2024 08:30:00,0.486
25/03/2024 08:45:00,0.486
25/03/2024 09:00:00,0.482
25/03/2024 09:15:00,0.483
25/03/2024 09:30:00,0.481
25/03/2024 09:45:00,0.479
25/03/2024 10:00:00,0.478
25/03/2024 10:15:00,0.481
25/03/2024 10:30:00,0.476
25/03/2024 10:45:00,0.474
25/03/2024 11:00:00,0.476
25/03/2024 11:15:00,0.474
25/03/2024 11:30:00,0.469
25/03/2024 11:45:00,0.469
25/03/2024 12:00:00,0.471
25/03/2024 12:15:00,0.467
25/03/2024 12:30:00,0.467
25/03/2024 12:45:00,0.466
25/03/2024 13:00:00,0.465
25/03/2024 13:15:00,0.462
25/03/2024 13:30:00,0.463
25/03/2024 13:45:00,0.46
25/03/2024 14:00:00,0.46
25/03/2024 14:15:00,0.461
25/03/2024 14:30:00,0.459
25/03/2024 14:45:00,0.461
25/03/2024 15:00:00,0.46
25/03/2024 15:15:00,0.458
25/03/2024 15:30:00,0.458
25/03/2024 15:45:00,0.458
25/03/2024 16:00:00,0.458
25/03/2024 16:15:00,0.454
25/03/2024 16:30:00,0.456
25/03/2024 16:45:00,0.456
25/03/2024 17:00:00,0.453
25/03/2024 17:15:00,0.455
25/03/2024 17:30:00,0.456
25/03/2024 17:45:00,0.455
25/03/2024 18:00:00,0.458
25/03/2024 18:15:00,0.456
25/03/2024 18:30:00,0.455
25/03/2024 18:45:00,0.458
25/03/2024 19:00:00,0.458
25/03/2024 19:15:00,0.459
25/03/2024 19:30:00,0.458
25/03/2024 19:45:00,0.458
25/03/2024 20:00:00,0.463
25/03/2024 20:15:00,0.46
25/03/2024 20:30:00,0.466
25/03/2024 20:45:00,0.466
25/03/2024 21:00:00,0.47
25/03/2024 21:15:00,0.472
25/03/2024 21:30:00,0.478
25/03/2024 21:45:00,0.479
25/03/2024 22:00:00,0.483
25/03/2024 22:15:00,0.482
25/03/2024 22:30:00,0.485
25/03/2024 22:45:00,0.486
25/03/2024 23:00:00,0.486
25/03/2024 23:15:00,0.489
25/03/2024 23:30:00,0.488
25/03/2024 23:45:00,0.49
26/03/2024 00:00:00,0.49
26/03/2024 00:15:00,0.486
26/03/2024 00:30:00,0.486
26/03/2024 00:45:00,0.488
26/03/2024 01:00:00,0.486
26/03/2024 01:15:00,0.485
26/03/2024 01:30:00,0.485
26/03/2024 01:45:00,0.48
26/03/2024 02:00:00,0.481
26/03/2024 02:15:00,0.479
26/03/2024 02:30:00,0.481
26/03/2024 02:45:00,0.479
26/03/2024 03:00:00,0.474
26/03/2024 03:15:00,0.475
26/03/2024 03:30:00,0.475
26/03/2024 03:45:00,0.474
26/03/2024 04:00:00,0.474
26/03/2024 04:15:00,0.471
26/03/2024 04:30:00,0.47
26/03/2024 04:45:00,0.468
26/03/2024 05:00:00,0.468
26/03/2024 05:15:00,0.468
26/03/2024 05:30:00,0.465
26/03/2024 05:45:00,0.467
26/03/2024 06:00:00,0.465
26/03/2024 06:15:00,0.463
26/03/2024 06:30:00,0.462
26/03/2024 06:45:00,0.465
26/03/2024 07:00:00,0.463
26/03/2024 07:15:00,0.46
26/03/2024 07:30:00,0.462
26/03/2024 07:45:00,0.461
26/03/2024 08:00:00,0.462
26/03/2024 08:15:00,0.459
26/03/2024 08:30:00,0.458
26/03/2024 08:45:00,0.456
26/03/2024 09:00:00,0.459
26/03/2024 09:15:00,0.456
26/03/2024 09:30:00,0.455
26/03/2024 09:45:00,0.455
26/03/2024 10:00:00,0.455
26/03/2024 10:15:00,0.453
26/03/2024 10:30:00,0.453
26/03/2024 10:45:00,0.453
26/03/2024 11:00:00,0.451
26/03/2024 11:15:00,0.452
26/03/2024 11:30:00,0.451
26/03/2024 11:45:00,0.453
26/03/2024 12:00:00,0.452
26/03/2024 12:15:00,0.451
26/03/2024 12:30:00,0.448
26/03/2024 12:45:00,0.448
26/03/2024 13:00:00,0.451
26/03/2024 13:15:00,0.449
26/03/2024 13:30:00,0.448
26/03/2024 13:45:00,0.448
26/03/2024 14:00:00,0.448
26/03/2024 14:15:00,0.445
26/03/2024 14:30:00,0.448
26/03/2024 14:45:00,0.448
26/03/2024 15:00:00,0.447
26/03/2024 15:15:00,0.446
26/03/2024 15:30:00,0.449
26/03/2024 15:45:00,0.445
26/03/2024 16:00:00,0.449
26/03/2024 16:15:00,0.448
26/03/2024 16:30:00,0.447
26/03/2024 16:45:00,0.448
26/03/2024 17:00:00,0.448
26/03/2024 17:15:00,0.449
26/03/2024 17:30:00,0.449
26/03/2024 17:45:00,0.449
26/03/2024 18:00:00,0.449
26/03/2024 18:15:00,0.449
26/03/2024 18:30:00,0.45
26/03/2024 18:45:00,0.449
26/03/2024 19:00:00,0.451
26/03/2024 19:15:00,0.452
26/03/2024 19:30:00,0.455
26/03/2024 19:45:00,0.458
26/03/2024 20:00:00,0.456
26/03/2024 20:15:00,0.458
26/03/2024 20:30:00,0.46
26/03/2024 20:45:00,0.462
26/03/2024 21:00:00,0.465
26/03/2024 21:15:00,0.465
26/03/2024 21:30:00,0.467
26/03/2024 21:45:00,0.469
26/03/2024 22:00:00,0.468
26/03/2024 22:15:00,0.468
26/03/2024 22:30:00,0.469
26/03/2024 22:45:00,0.469
26/03/2024 23:00:00,0.469
26/03/2024 23:15:00,0.468
26/03/2024 23:30:00,0.467
26/03/2024 23:45:00,0.467
27/03/2024 00:00:00,0.465
27/03/2024 00:15:00,0.465
27/03/2024 00:30:00,0.465
27/03/2024 00:45:00,0.462
27/03/2024 01:00:00,0.46
27/03/2024 01:15:00,0.462
27/03/2024 01:30:00,0.459
27/03/2024 01:45:00,0.458
27/03/2024 02:00:00,0.455
27/03/2024 02:15:00,0.459
27/03/2024 02:30:00,0.455
27/03/2024 02:45:00,0.454
27/03/2024 03:00:00,0.453
27/03/2024 03:15:00,0.453
27/03/2024 03:30:00,0.453
27/03/2024 03:45:00,0.453
27/03/2024 04:00:00,0.451
27/03/2024 04:15:00,0.448
27/03/2024 04:30:00,0.448
27/03/2024 04:45:00,0.449
27/03/2024 05:00:00,0.446
27/03/2024 05:15:00,0.446
27/03/2024 05:30:00,0.445
27/03/2024 05:45:00,0.446
27/03/2024 06:00:00,0.442
27/03/2024 06:15:00,0.442
27/03/2024 06:30:00,0.442
27/03/2024 06:45:00,0.441
27/03/2024 07:00:00,0.443
27/03/2024 07:15:00,0.441
27/03/2024 07:30:00,0.439
27/03/2024 07:45:00,0.438
27/03/2024 08:00:00,0.438
27/03/2024 08:15:00,0.437
27/03/2024 08:30:00,0.437
27/03/2024 08:45:00,0.437
27/03/2024 09:00:00,0.437
27/03/2024 09:15:00,0.435
27/03/2024 09:30:00,0.435
27/03/2024 09:45:00,0.435
27/03/2024 10:00:00,0.435
27/03/2024 10:15:00,0.434
27/03/2024 10:30:00,0.433
27/03/2024 10:45:00,0.434
27/03/2024 11:00:00,0.435
27/03/2024 11:15:00,0.433
27/03/2024 11:30:00,0.434
27/03/2024 11:45:00,0.432
27/03/2024 12:00:00,0.434
27/03/2024 12:15:00,0.433
27/03/2024 12:30:00,0.432
27/03/2024 12:45:00,0.433
27/03/2024 13:00:00,0.432
27/03/2024 13:15:00,0.428
27/03/2024 13:30:00,0.431
27/03/2024 13:45:00,0.428
27/03/2024 14:00:00,0.43
27/03/2024 14:15:00,0.428
27/03/2024 14:30:00,0.43
27/03/2024 14:45:00,0.43
27/03/2024 15:00:00,0.43
27/03/2024 15:15:00,0.432
27/03/2024 15:30:00,0.431
27/03/2024 15:45:00,0.431
27/03/2024 16:00:00,0.432
27/03/2024 16:15:00,0.434
27/03/2024 16:30:00,0.433
27/03/2024 16:45:00,0.434
27/03/2024 17:00:00,0.432
27/03/2024 17:15:00,0.436
27/03/2024 17:30:00,0.435
27/03/2024 17:45:00,0.436
27/03/2024 18:00:00,0.437
27/03/2024 18:15:00,0.439
27/03/2024 18:30:00,0.441
27/03/2024 18:45:00,0.444
27/03/2024 19:00:00,0.444
27/03/2024 19:15:00,0.444
27/03/2024 19:30:00,0.444
27/03/2024 19:45:00,0.449
27/03/2024 20:00:00,0.448
27/03/2024 20:15:00,0.449
27/03/2024 20:30:00,0.451
27/03/2024 20:45:00,0.452
27/03/2024 21:00:00,0.454
27/03/2024 21:15:00,0.455
27/03/2024 21:30:00,0.458
27/03/2024 21:45:00,0.463
27/03/2024 22:00:00,0.464
27/03/2024 22:15:00,0.467
27/03/2024 22:30:00,0.471
27/03/2024 22:45:00,0.471
27/03/2024 23:00:00,0.476
27/03/2024 23:15:00,0.474
27/03/2024 23:30:00,0.481
27/03/2024 23:45:00,0.483
28/03/2024 00:00:00,0.485
28/03/2024 00:15:00,0.483
28/03/2024 00:30:00,0.487
28/03/2024 00:45:00,0.486
28/03/2024 01:00:00,0.486
28/03/2024 01:15:00,0.488
28/03/2024 01:30:00,0.488
28/03/2024 01:45:00,0.488
28/03/2024 02:00:00,0.487
28/03/2024 02:15:00,0.486
28/03/2024 02:30:00,0.49
28/03/2024 02:45:00,0.485
28/03/2024 03:00:00,0.484
28/03/2024 03:15:00,0.486
28/03/2024 03:30:00,0.486
28/03/2024 03:45:00,0.486
28/03/2024 04:00:00,0.483
28/03/2024 04:15:00,0.479
28/03/2024 04:30:00,0.481
28/03/2024 04:45:00,0.48
28/03/2024 05:00:00,0.481
28/03/2024 05:15:00,0.478
28/03/2024 05:30:00,0.478
28/03/2024 05:45:00,0.476
28/03/2024 06:00:00,0.476
28/03/2024 06:15:00,0.476
28/03/2024 06:30:00,0.472
28/03/2024 06:45:00,0.474
28/03/2024 07:00:00,0.472
28/03/2024 07:15:00,0.472
28/03/2024 07:30:00,0.471
28/03/2024 07:45:00,0.472
28/03/2024 08:00:00,0.468
28/03/2024 08:15:00,0.469
28/03/2024 08:30:00,0.469
28/03/2024 08:45:00,0.469
28/03/2024 09:00:00,0.466
28/03/2024 09:15:00,0.465
28/03/2024 09:30:00,0.463
28/03/2024 09:45:00,0.464
28/03/2024 10:00:00,0.463
28/03/2024 10:15:00,0.463
28/03/2024 10:30:00,0.461
28/03/2024 10:45:00,0.46
28/03/2024 11:00:00,0.462
28/03/2024 11:15:00,0.462
28/03/2024 11:30:00,0.46
28/03/2024 11:45:00,0.459
28/03/2024 12:00:00,0.456
28/03/2024 12:15:00,0.458
28/03/2024 12:30:00,0.457
28/03/2024 12:45:00,0.459
28/03/2024 13:00:00,0.456
28/03/2024 13:15:00,0.455
28/03/2024 13:30:00,0.455
28/03/2024 13:45:00,0.453
28/03/2024 14:00:00,0.453
28/03/2024 14:15:00,0.451
28/03/2024 14:30:00,0.451
28/03/2024 14:45:00,0.452
28/03/2024 15:00:00,0.451
28/03/2024 15:15:00,0.452
28/03/2024 15:30:00,0.453
28/03/2024 15:45:00,0.453
